HORS 3 (RS81S)

Last updated on Wed Feb 05 2025 00:03:01 GMT+0000 (Coordinated Universal Time)

1 61753U 24199U 25035.58365188 .00024588 00000+0 89824-3 0 9996 2 61753 97.3742 265.2142 0010437 279.2796 80.7263 15.28045762 60973
UTC large
Height (km)
Speed (km/s)
/
Latitude / Longitude
Inclination (degrees)
Orbital Period (minutes)
Azimuth
Elevation
Range (km)
Doppler Factor

Next 0 passes for location: London (51.5072 / 0.1276)

Sorry there are no passes over London.